Location: *
(37.5724°S, 58.0067°E)
Time: 10:49:43
(UTC+00:00)

SL-4 R/B - Pass Details

Date: 26 September 2020
Orbit: 427 x 666 km, 51.6° (Epoch: 30 October)

Event Time Altitude Azimuth Distance (km) Brightness Sun altitude
Rises 15:55:56 0° 223° (SW) 2,441 6.4 -21.7°
Reaches altitude 10° 15:58:20 10° 208° (SSW) 1,555 5.0 -22.1°
Enters shadow 16:00:29 23° 173° (S) 985 3.4 -22.5°
